[[{"header":{"parameterUnit":"m.s-1","parameterCategory":1,"la1":30.2991,"la2":30.254,"lo1":-89.0895,"lo2":-89.0444,"dy":0.0017,"dx":0.0017,"nx":28,"ny":28,"refTime":"2025-08-13T21:00:00:Z","depth":0,"parameterNumber":2,"parameterNumberName":"U-component_of_WINDS"},"data":[0,0,0,0,0,0,0,0,0,0,0,0,0,0,0,0,0,0,0,0,0,0,0,0,0,0,0,0,0,0,0,0,0,0,0,0,0,0,0,0,0,0,0,0,0,0,0,0,0,0,0,0,0,0,0,0,0,0,3.7712,3.7713,0,3.7841,3.7843,3.7844,3.7792,3.7789,3.7786,3.7783,3.7917,3.7923,3.793,0,0,0,0,0,0,0,0,0,0,0,0,0,3.7421,3.7426,3.7712,3.7713,3.7715,3.7841,3.7843,3.7845,3.7792,3.7788,3.7785,3.7781,3.7915,3.7922,3.793,0,0,0,0,0,0,0,0,0,0,0,0,0,3.7548,3.7428,3.7712,3.7704,3.7705,3.7841,3.7843,3.7845,3.7793,3.7788,3.7784,3.7779,3.7912,3.7922,3.7931,3.8083,0,0,3.7961,3.7965,0,0,0,0,0,0,0,0,3.7541,3.7559,3.7704,3.7705,3.7706,3.7796,3.7789,3.7925,3.7794,3.776,3.7783,3.7777,3.788,3.7892,3.7927,3.8089,3.8095,3.7962,3.7967,3.7972,3.7974,0,0,0,0,0,0,0,3.7532,3.7553,3.7763,3.7706,3.7707,3.7695,3.7708,3.7815,3.7844,3.7762,3.7759,3.7775,3.788,3.7918,3.793,3.8097,3.7961,3.797,3.7976,3.798,3.8389,3.8394,0,0,0,0,0,0,3.7523,3.7546,3.7759,3.7767,3.761,3.7704,3.7718,3.7771,3.7843,3.7849,3.7778,3.7772,3.7903,3.7918,3.7934,3.8115,3.7971,3.798,3.7986,3.8384,3.839,3.8395,0,0,0,0,0,0,3.7517,3.7543,3.7754,3.7656,3.7682,3.7714,3.7774,3.7776,3.7814,3.7855,3.786,3.7811,3.79,3.792,3.8046,3.8119,3.7985,3.7994,3.8378,3.8386,3.8393,3.848,0,0,0,0,0,0,3.7509,3.7541,3.7598,3.7657,3.7687,3.7863,3.7778,3.7782,3.783,3.7823,3.7887,3.7894,3.7898,3.8032,3.8055,3.813,3.8001,3.8371,3.8381,3.839,3.847,3.8489,3.8506,0,0,0,0,0,3.7499,3.7618,3.7602,3.7628,3.776,3.7868,3.7885,3.7887,3.7836,3.7895,3.7921,3.7891,3.8108,3.8045,3.8071,3.815,3.8367,3.8378,3.839,3.8463,3.8486,3.8505,0,0,0,0,0,0,3.7568,3.7626,3.7608,3.775,3.7804,3.7858,3.7932,3.7912,3.7982,3.7972,3.7972,3.7987,3.8117,3.8146,3.8075,3.83,3.8229,3.8247,3.8276,3.8298,3.8316,3.8306,3.8009,0,0,0,0,0,3.76,3.7682,3.7728,3.7849,3.7877,3.79,3.7947,3.7944,3.8001,3.8024,3.8059,3.8115,3.8196,3.8249,3.8325,3.8475,3.8488,3.8542,3.8559,3.8573,3.8588,3.8669,3.8693,3.8433,3.8433,3.8433,0,0,3.7666,3.7708,3.776,3.7864,3.7906,3.7991,3.792,3.8013,3.8077,3.8038,3.8158,3.8186,3.8249,3.8387,3.8449,3.8415,3.8663,3.8588,3.8599,3.8606,3.8683,3.8708,3.873,3.8441,3.8439,3.8438,0,0,3.7831,3.7871,3.7976,3.8019,3.8082,3.8097,3.8122,3.8179,3.8196,3.8317,3.8289,3.8365,3.8503,3.8549,3.859,3.8772,3.8747,3.8797,3.8889,3.8967,3.8987,3.9006,3.907,3.9093,3.8811,3.8812,3.8812,0,3.7906,3.8033,3.8033,3.8128,3.8175,3.8143,3.8249,3.8291,3.8376,3.8409,3.837,3.8542,3.8582,3.873,3.8774,3.8809,3.8838,3.8789,3.8984,3.9003,3.902,3.9081,3.9105,3.8817,3.8817,3.8816,3.8815,0,3.8122,3.821,3.8287,3.837,3.8425,3.8525,3.854,3.8596,3.8589,3.8607,3.873,3.8777,3.8862,3.8897,3.8891,3.9044,3.9021,3.8983,3.8912,3.905,3.9107,3.9131,3.8825,3.8823,3.8822,3.882,0,0,3.8334,3.8414,3.8442,3.8479,3.8546,3.8615,3.8714,3.8796,3.8844,3.8904,3.8987,3.9105,3.907,3.9117,3.9116,3.9185,3.9325,3.9139,3.914,3.9171,3.9496,3.9523,3.955,3.9309,3.9313,3.9317,3.949,0,3.8503,3.8676,3.8678,3.8837,3.8919,3.8889,3.8975,3.9026,3.9046,3.9118,3.9141,3.9224,3.9172,3.92,3.9267,3.9294,3.939,3.9281,3.9386,3.939,3.937,3.958,3.961,3.9771,3.9513,3.9517,3.9519,0,3.8724,3.879,3.8957,3.9011,3.9046,3.9123,3.9198,3.9268,3.9325,3.9334,3.9387,3.9375,3.9476,3.9402,3.9541,3.9467,3.951,3.953,3.9536,3.9546,3.9462,3.9595,3.9823,3.9847,3.9555,3.9552,3.9549,0,3.8861,3.8992,3.9108,3.9141,3.9208,3.9263,3.9293,3.9346,3.9395,3.9461,3.9492,3.957,3.9612,3.9672,3.9682,3.9627,3.9821,3.9749,3.9832,3.9832,3.9874,3.9871,4.0111,3.9903,3.9903,3.9902,3.9902,0,3.905,3.9153,3.9171,3.9242,3.9357,3.9358,3.9472,3.9498,3.9545,3.9621,3.9601,3.9673,3.9681,3.9756,3.9764,3.9878,3.9897,3.9908,3.9909,3.991,3.9908,3.9937,3.9926,3.9909,3.9907,3.9906,3.9905,0,3.9222,3.9239,3.9363,3.9416,3.9432,3.9514,3.9559,3.9628,3.9645,3.9742,3.9765,3.9793,3.988,3.9895,3.9998,4.0003,4.0138,4.0128,4.0119,4.0117,4.02,4.0192,4.0467,4.0503,4.0272,4.0274,4.0276,0,3.9341,3.942,3.9481,3.953,3.9563,3.9643,3.9692,3.9697,3.975,3.982,3.988,3.9964,4.0032,4.0172,4.0202,4.028,4.0271,4.0362,4.0283,4.0281,4.0272,4.0267,4.0274,4.0377,4.038,4.0382,4.0383,0,3.9551,3.9555,3.9626,3.9701,3.9761,3.982,3.9876,3.9918,3.993,3.999,4.0078,4.0131,4.0235,4.0319,4.0396,4.0428,4.0408,4.0408,4.0431,4.0433,4.0424,4.0429,4.016,4.0402,4.04,4.0399,4.0398,4.0397,3.97,3.9768,3.9821,3.9901,3.9944,3.9997,4.0063,4.0089,4.0162,4.0246,4.0245,4.0341,4.0396,4.0498,4.0535,4.061,4.0581,4.0615,4.0624,4.0632,4.0639,4.0412,4.0624,4.0624,4.0623,4.0623,4.0623,0,3.9908,3.994,4.0014,4.0093,4.0156,4.0131,4.0191,4.0246,4.0331,4.0383,4.045,4.0551,4.0632,4.0668,4.0748,4.0801,4.0794,4.0822,4.0818,4.0825,4.0661,4.0632,4.0826,4.0826,4.0826,4.0826,4.0826,4.0826,4.0023,4.0136,4.0146,4.028,4.0312,4.0405,4.0442,4.0491,4.0532,4.0645,4.0712,4.0734,4.078,4.0863,4.0937,4.0945,4.0975,4.1007,4.1012,4.0858,4.0837,4.0817,4.079,4.1014,4.1014,4.1169,4.1171,4.1172]},{"header":{"parameterUnit":"m.s-1","parameterCategory":1,"la1":30.2991,"la2":30.254,"lo1":-89.0895,"lo2":-89.0444,"dy":0.0017,"dx":0.0017,"nx":28,"ny":28,"refTime":"2025-08-13T21:00:00:Z","depth":0,"parameterNumber":3,"parameterNumberName":"V-component_of_WINDS"},"data":[0,0,0,0,0,0,0,0,0,0,0,0,0,0,0,0,0,0,0,0,0,0,0,0,0,0,0,0,0,0,0,0,0,0,0,0,0,0,0,0,0,0,0,0,0,0,0,0,0,0,0,0,0,0,0,0,0,0,-0.1883,-0.1883,0,-0.1881,-0.1881,-0.1881,-0.188,-0.188,-0.188,-0.188,-0.1877,-0.1877,-0.1877,0,0,0,0,0,0,0,0,0,0,0,0,0,-0.1886,-0.1886,-0.1883,-0.1883,-0.1883,-0.1881,-0.1881,-0.1881,-0.188,-0.188,-0.188,-0.188,-0.1877,-0.1877,-0.1877,0,0,0,0,0,0,0,0,0,0,0,0,0,-0.1885,-0.1886,-0.1883,-0.1882,-0.1882,-0.1881,-0.1881,-0.1881,-0.188,-0.188,-0.188,-0.188,-0.1877,-0.1877,-0.1877,-0.1876,0,0,-0.1877,-0.1877,0,0,0,0,0,0,0,0,-0.1885,-0.1884,-0.1882,-0.1882,-0.1882,-0.1881,-0.1881,-0.1879,-0.188,-0.1881,-0.188,-0.188,-0.1878,-0.1878,-0.1878,-0.1876,-0.1876,-0.1877,-0.1877,-0.1877,-0.1877,0,0,0,0,0,0,0,-0.1885,-0.1884,-0.1882,-0.1882,-0.1882,-0.1882,-0.1882,-0.1881,-0.1879,-0.1881,-0.188,-0.188,-0.1878,-0.1878,-0.1878,-0.1876,-0.1877,-0.1877,-0.1877,-0.1877,-0.1874,-0.1874,0,0,0,0,0,0,-0.1885,-0.1885,-0.1882,-0.1882,-0.1883,-0.1882,-0.1882,-0.1881,-0.1879,-0.1879,-0.188,-0.188,-0.1878,-0.1878,-0.1878,-0.1877,-0.1877,-0.1877,-0.1876,-0.1874,-0.1874,-0.1874,0,0,0,0,0,0,-0.1885,-0.1885,-0.1882,-0.1883,-0.1883,-0.1882,-0.1881,-0.1881,-0.1881,-0.1879,-0.1879,-0.188,-0.1878,-0.1878,-0.1877,-0.1877,-0.1876,-0.1876,-0.1874,-0.1874,-0.1874,-0.1875,0,0,0,0,0,0,-0.1885,-0.1885,-0.1885,-0.1883,-0.1883,-0.1882,-0.1881,-0.1881,-0.188,-0.188,-0.1879,-0.1879,-0.1878,-0.1877,-0.1877,-0.1876,-0.1876,-0.1874,-0.1874,-0.1874,-0.1875,-0.1875,-0.1875,0,0,0,0,0,-0.1885,-0.1885,-0.1885,-0.1884,-0.1883,-0.1882,-0.1881,-0.1881,-0.188,-0.188,-0.1879,-0.1879,-0.1877,-0.1877,-0.1876,-0.1876,-0.1874,-0.1874,-0.1874,-0.1875,-0.1875,-0.1875,0,0,0,0,0,0,-0.1886,-0.1885,-0.1884,-0.1883,-0.1883,-0.1881,-0.1881,-0.1881,-0.188,-0.188,-0.1879,-0.1878,-0.1877,-0.1877,-0.1877,-0.1876,-0.1875,-0.1875,-0.1876,-0.1876,-0.1876,-0.1876,-0.1876,0,0,0,0,0,-0.1886,-0.1885,-0.1884,-0.1883,-0.1883,-0.1882,-0.1882,-0.1881,-0.188,-0.188,-0.1879,-0.1878,-0.1877,-0.1877,-0.1876,-0.1875,-0.1875,-0.1875,-0.1875,-0.1875,-0.1875,-0.1874,-0.1874,-0.1874,-0.1874,-0.1874,0,0,-0.1886,-0.1885,-0.1885,-0.1883,-0.1883,-0.1882,-0.1882,-0.1881,-0.1881,-0.188,-0.1879,-0.1878,-0.1877,-0.1876,-0.1876,-0.1876,-0.1875,-0.1875,-0.1875,-0.1875,-0.1874,-0.1874,-0.1874,-0.1874,-0.1874,-0.1874,0,0,-0.1885,-0.1885,-0.1884,-0.1884,-0.1883,-0.1882,-0.1882,-0.1881,-0.1881,-0.188,-0.1879,-0.1878,-0.1877,-0.1876,-0.1876,-0.1876,-0.1875,-0.1875,-0.1875,-0.1875,-0.1875,-0.1875,-0.1875,-0.1875,-0.1875,-0.1875,-0.1875,0,-0.1886,-0.1885,-0.1884,-0.1883,-0.1883,-0.1882,-0.1882,-0.1881,-0.188,-0.188,-0.1879,-0.1878,-0.1877,-0.1876,-0.1876,-0.1876,-0.1876,-0.1875,-0.1875,-0.1875,-0.1875,-0.1875,-0.1875,-0.1875,-0.1875,-0.1875,-0.1875,0,-0.1885,-0.1884,-0.1884,-0.1883,-0.1882,-0.1882,-0.1881,-0.1881,-0.188,-0.188,-0.1879,-0.1878,-0.1877,-0.1877,-0.1876,-0.1876,-0.1876,-0.1875,-0.1875,-0.1875,-0.1875,-0.1875,-0.1875,-0.1875,-0.1875,-0.1875,0,0,-0.1884,-0.1883,-0.1883,-0.1883,-0.1882,-0.1881,-0.1881,-0.188,-0.188,-0.1879,-0.1879,-0.1878,-0.1877,-0.1877,-0.1876,-0.1876,-0.1876,-0.1876,-0.1876,-0.1876,-0.1875,-0.1876,-0.1876,-0.1876,-0.1876,-0.1876,-0.1876,0,-0.1884,-0.1883,-0.1882,-0.1882,-0.1881,-0.1881,-0.188,-0.188,-0.1879,-0.1879,-0.1878,-0.1877,-0.1877,-0.1877,-0.1877,-0.1876,-0.1876,-0.1876,-0.1875,-0.1875,-0.1875,-0.1876,-0.1876,-0.1876,-0.1876,-0.1876,-0.1876,0,-0.1883,-0.1883,-0.1882,-0.1881,-0.1881,-0.188,-0.188,-0.1879,-0.1879,-0.1878,-0.1878,-0.1878,-0.1877,-0.1877,-0.1876,-0.1876,-0.1876,-0.1876,-0.1876,-0.1875,-0.1875,-0.1875,-0.1875,-0.1875,-0.1875,-0.1875,-0.1875,0,-0.1883,-0.1882,-0.1881,-0.1881,-0.188,-0.188,-0.188,-0.1879,-0.1879,-0.1878,-0.1878,-0.1877,-0.1877,-0.1877,-0.1876,-0.1876,-0.1875,-0.1875,-0.1875,-0.1875,-0.1875,-0.1875,-0.1875,-0.1875,-0.1875,-0.1875,-0.1875,0,-0.1882,-0.1882,-0.1881,-0.1881,-0.188,-0.188,-0.188,-0.1879,-0.1879,-0.1878,-0.1878,-0.1878,-0.1877,-0.1877,-0.1876,-0.1876,-0.1875,-0.1875,-0.1875,-0.1875,-0.1875,-0.1875,-0.1875,-0.1875,-0.1875,-0.1875,-0.1875,0,-0.1882,-0.1882,-0.1881,-0.188,-0.188,-0.188,-0.188,-0.1879,-0.1879,-0.1878,-0.1878,-0.1878,-0.1877,-0.1877,-0.1876,-0.1876,-0.1875,-0.1875,-0.1875,-0.1875,-0.1875,-0.1875,-0.1875,-0.1875,-0.1875,-0.1875,-0.1875,0,-0.1882,-0.1881,-0.1881,-0.188,-0.188,-0.188,-0.188,-0.1879,-0.1879,-0.1878,-0.1878,-0.1878,-0.1877,-0.1876,-0.1876,-0.1875,-0.1875,-0.1875,-0.1875,-0.1875,-0.1875,-0.1875,-0.1875,-0.1875,-0.1875,-0.1875,-0.1875,0,-0.1881,-0.1881,-0.188,-0.188,-0.188,-0.1879,-0.1879,-0.1879,-0.1879,-0.1878,-0.1878,-0.1877,-0.1877,-0.1876,-0.1876,-0.1876,-0.1875,-0.1875,-0.1875,-0.1875,-0.1875,-0.1875,-0.1875,-0.1875,-0.1875,-0.1875,-0.1875,-0.1875,-0.1881,-0.188,-0.188,-0.188,-0.1879,-0.1879,-0.1879,-0.1879,-0.1878,-0.1878,-0.1878,-0.1877,-0.1877,-0.1876,-0.1876,-0.1875,-0.1875,-0.1875,-0.1875,-0.1875,-0.1875,-0.1876,-0.1875,-0.1875,-0.1875,-0.1875,-0.1875,0,-0.188,-0.188,-0.1879,-0.1879,-0.1879,-0.1879,-0.1878,-0.1878,-0.1878,-0.1878,-0.1877,-0.1877,-0.1876,-0.1876,-0.1876,-0.1876,-0.1875,-0.1875,-0.1875,-0.1875,-0.1875,-0.1875,-0.1876,-0.1876,-0.1876,-0.1876,-0.1876,-0.1876,-0.1879,-0.1879,-0.1879,-0.1879,-0.1878,-0.1878,-0.1878,-0.1878,-0.1877,-0.1877,-0.1877,-0.1877,-0.1876,-0.1876,-0.1876,-0.1876,-0.1875,-0.1875,-0.1875,-0.1875,-0.1875,-0.1875,-0.1875,-0.1875,-0.1875,-0.1875,-0.1875,-0.1875]}]]